[[{"header":{"parameterUnit":"m.s-1","parameterCategory":1,"la1":30.2991,"la2":30.254,"lo1":-89.0895,"lo2":-89.0444,"dy":0.0017,"dx":0.0017,"nx":28,"ny":28,"refTime":"2026-02-12T03:00:00:Z","depth":0,"parameterNumber":2,"parameterNumberName":"U-component_of_WINDS"},"data":[0,0,0,0,0,0,0,0,0,0,0,0,0,0,0,0,0,0,0,0,0,0,0,0,0,0,0,0,0,0,0,0,0,0,0,0,0,0,0,0,0,0,0,0,0,0,0,0,0,0,0,0,0,0,0,0,0,0,-1.857,-1.857,0,-1.8543,-1.8542,-1.8542,-1.8499,-1.8499,-1.8498,-1.8497,-1.8467,-1.8467,-1.8467,0,0,0,0,0,0,0,0,0,0,0,0,0,-1.8586,-1.8586,-1.857,-1.857,-1.857,-1.8543,-1.8542,-1.8542,-1.8499,-1.8499,-1.8498,-1.8497,-1.8467,-1.8467,-1.8467,0,0,0,0,0,0,0,0,0,0,0,0,0,-1.8571,-1.8586,-1.857,-1.8545,-1.8543,-1.8543,-1.8542,-1.8542,-1.85,-1.8499,-1.8497,-1.8496,-1.8467,-1.8467,-1.8467,-1.8489,0,0,-1.8466,-1.8466,0,0,0,0,0,0,0,0,-1.8572,-1.8571,-1.8549,-1.8547,-1.8544,-1.8523,-1.8537,-1.8524,-1.85,-1.8516,-1.8497,-1.8496,-1.8486,-1.8485,-1.8482,-1.8487,-1.8486,-1.8466,-1.8466,-1.8466,-1.8466,0,0,0,0,0,0,0,-1.8573,-1.8571,-1.8559,-1.8549,-1.8546,-1.8535,-1.8532,-1.8534,-1.8508,-1.8514,-1.8511,-1.8509,-1.8485,-1.8482,-1.8481,-1.8485,-1.8466,-1.8466,-1.8466,-1.8466,-1.851,-1.8511,0,0,0,0,0,0,-1.8578,-1.8573,-1.856,-1.8558,-1.8556,-1.8536,-1.8532,-1.8531,-1.8508,-1.8503,-1.851,-1.8507,-1.8483,-1.8481,-1.848,-1.8505,-1.8466,-1.8466,-1.8466,-1.8508,-1.851,-1.8511,0,0,0,0,0,0,-1.8578,-1.8577,-1.8561,-1.8565,-1.8562,-1.8537,-1.8536,-1.8531,-1.8528,-1.8504,-1.8499,-1.8512,-1.8482,-1.848,-1.8487,-1.8503,-1.8466,-1.8466,-1.8507,-1.8509,-1.8511,-1.8555,0,0,0,0,0,0,-1.8579,-1.8578,-1.8585,-1.8565,-1.8562,-1.8569,-1.8537,-1.8531,-1.8529,-1.8524,-1.8505,-1.85,-1.8481,-1.8488,-1.8487,-1.8502,-1.8466,-1.8505,-1.8508,-1.851,-1.8552,-1.8558,-1.8563,0,0,0,0,0,-1.858,-1.8598,-1.8586,-1.8585,-1.8571,-1.857,-1.8568,-1.8546,-1.853,-1.8538,-1.8523,-1.8501,-1.8502,-1.8489,-1.8488,-1.8503,-1.8504,-1.8507,-1.851,-1.8549,-1.8556,-1.8563,0,0,0,0,0,0,-1.8619,-1.8595,-1.8581,-1.8593,-1.8585,-1.8563,-1.8572,-1.8554,-1.8549,-1.8545,-1.8518,-1.8514,-1.8525,-1.8515,-1.8501,-1.8524,-1.85,-1.8503,-1.853,-1.8537,-1.8543,-1.8544,-1.8465,0,0,0,0,0,-1.863,-1.8631,-1.861,-1.8623,-1.8619,-1.8597,-1.8595,-1.858,-1.8569,-1.8564,-1.855,-1.854,-1.8538,-1.8537,-1.8534,-1.8551,-1.8546,-1.8561,-1.8567,-1.8571,-1.8574,-1.8583,-1.859,-1.852,-1.852,-1.852,0,0,-1.865,-1.8637,-1.864,-1.863,-1.8621,-1.8624,-1.8593,-1.8597,-1.8599,-1.8565,-1.8571,-1.856,-1.8548,-1.8561,-1.8565,-1.8552,-1.8592,-1.8575,-1.8579,-1.8579,-1.8587,-1.8594,-1.8599,-1.8522,-1.8522,-1.8522,0,0,-1.8689,-1.868,-1.869,-1.8683,-1.867,-1.8656,-1.8659,-1.8641,-1.8633,-1.8639,-1.8614,-1.8616,-1.8613,-1.8606,-1.8602,-1.8642,-1.8622,-1.8642,-1.8671,-1.8681,-1.8686,-1.8691,-1.8706,-1.8712,-1.8645,-1.8645,-1.8645,0,-1.8716,-1.8719,-1.8697,-1.8703,-1.87,-1.8672,-1.8682,-1.8676,-1.8663,-1.8662,-1.8648,-1.8646,-1.8635,-1.8646,-1.8657,-1.8654,-1.8657,-1.8643,-1.8688,-1.8692,-1.8696,-1.871,-1.8716,-1.8647,-1.8647,-1.8647,-1.8646,0,-1.8754,-1.8756,-1.8766,-1.8756,-1.8755,-1.8763,-1.8743,-1.8744,-1.8729,-1.8716,-1.8724,-1.8711,-1.8706,-1.8708,-1.8692,-1.8718,-1.871,-1.8693,-1.8667,-1.8706,-1.8718,-1.8723,-1.8651,-1.865,-1.8649,-1.8649,0,0,-1.8814,-1.8794,-1.8798,-1.8794,-1.878,-1.8781,-1.879,-1.8785,-1.8787,-1.878,-1.8786,-1.8787,-1.8771,-1.8766,-1.8751,-1.8759,-1.8793,-1.8741,-1.874,-1.8751,-1.8821,-1.8834,-1.8841,-1.8781,-1.8782,-1.8783,-1.8823,0,-1.885,-1.8862,-1.8844,-1.886,-1.8863,-1.8838,-1.8845,-1.8837,-1.8827,-1.8828,-1.8816,-1.8816,-1.8796,-1.8793,-1.8801,-1.8788,-1.8807,-1.8785,-1.8786,-1.8787,-1.8789,-1.8847,-1.886,-1.8898,-1.8827,-1.8828,-1.8829,0,-1.8892,-1.8889,-1.8906,-1.8894,-1.8894,-1.8901,-1.8897,-1.8898,-1.889,-1.8882,-1.8879,-1.8861,-1.8868,-1.8846,-1.8856,-1.8841,-1.8841,-1.8836,-1.8837,-1.8835,-1.8809,-1.8847,-1.891,-1.8915,-1.8836,-1.8836,-1.8835,0,-1.8935,-1.8935,-1.8946,-1.8943,-1.8928,-1.8934,-1.8928,-1.8919,-1.8918,-1.8915,-1.8915,-1.8912,-1.8911,-1.891,-1.8892,-1.8877,-1.8905,-1.888,-1.8899,-1.8899,-1.8904,-1.8904,-1.8967,-1.8906,-1.8906,-1.8905,-1.8905,0,-1.8976,-1.8988,-1.8965,-1.8971,-1.8984,-1.8964,-1.8977,-1.8969,-1.8962,-1.8966,-1.8945,-1.8949,-1.8926,-1.8929,-1.8916,-1.8927,-1.8927,-1.892,-1.8916,-1.8922,-1.8923,-1.892,-1.8917,-1.8907,-1.8907,-1.8906,-1.8906,0,-1.9025,-1.901,-1.902,-1.9007,-1.9004,-1.9014,-1.9002,-1.9008,-1.8997,-1.9003,-1.9004,-1.8987,-1.8989,-1.8972,-1.8971,-1.8962,-1.898,-1.8972,-1.8983,-1.898,-1.8999,-1.8998,-1.9063,-1.9071,-1.9005,-1.9005,-1.9006,0,-1.9052,-1.906,-1.9048,-1.9051,-1.9046,-1.905,-1.905,-1.9032,-1.9033,-1.9026,-1.9033,-1.9034,-1.9033,-1.9039,-1.9026,-1.9026,-1.9017,-1.9041,-1.9017,-1.9023,-1.9018,-1.9017,-1.9018,-1.9045,-1.9046,-1.9046,-1.9047,0,-1.9101,-1.9094,-1.9095,-1.9095,-1.9096,-1.9095,-1.9092,-1.9095,-1.9075,-1.9078,-1.9081,-1.9081,-1.9081,-1.9083,-1.9081,-1.9075,-1.9058,-1.9055,-1.9059,-1.9064,-1.907,-1.9068,-1.8996,-1.9053,-1.9052,-1.9052,-1.9052,-1.9051,-1.914,-1.9147,-1.914,-1.9143,-1.9139,-1.9138,-1.9143,-1.9134,-1.9137,-1.9136,-1.9125,-1.9131,-1.9125,-1.912,-1.9117,-1.9121,-1.911,-1.9116,-1.9117,-1.9119,-1.9122,-1.9071,-1.912,-1.912,-1.912,-1.912,-1.912,0,-1.9188,-1.9184,-1.9186,-1.9184,-1.9187,-1.9172,-1.9169,-1.9172,-1.9178,-1.9174,-1.9175,-1.9179,-1.9182,-1.9171,-1.9172,-1.9177,-1.917,-1.9178,-1.9177,-1.9176,-1.9132,-1.9128,-1.9184,-1.9184,-1.9184,-1.9184,-1.9184,-1.9184,-1.9214,-1.9225,-1.9218,-1.9229,-1.9224,-1.923,-1.9229,-1.9228,-1.9225,-1.9232,-1.9234,-1.9227,-1.9221,-1.9222,-1.9224,-1.922,-1.9222,-1.9233,-1.9227,-1.9185,-1.9179,-1.9173,-1.9169,-1.9233,-1.9233,-1.9271,-1.9271,-1.9272]},{"header":{"parameterUnit":"m.s-1","parameterCategory":1,"la1":30.2991,"la2":30.254,"lo1":-89.0895,"lo2":-89.0444,"dy":0.0017,"dx":0.0017,"nx":28,"ny":28,"refTime":"2026-02-12T03:00:00:Z","depth":0,"parameterNumber":3,"parameterNumberName":"V-component_of_WINDS"},"data":[0,0,0,0,0,0,0,0,0,0,0,0,0,0,0,0,0,0,0,0,0,0,0,0,0,0,0,0,0,0,0,0,0,0,0,0,0,0,0,0,0,0,0,0,0,0,0,0,0,0,0,0,0,0,0,0,0,0,2.5078,2.5078,0,2.5029,2.5028,2.5027,2.5055,2.5056,2.5057,2.5059,2.5002,2.4999,2.4997,0,0,0,0,0,0,0,0,0,0,0,0,0,2.5193,2.5191,2.5078,2.5078,2.5077,2.5029,2.5028,2.5027,2.5054,2.5056,2.5058,2.5059,2.5003,2.5,2.4996,0,0,0,0,0,0,0,0,0,0,0,0,0,2.5143,2.519,2.5078,2.5085,2.5085,2.5029,2.5028,2.5027,2.5054,2.5056,2.5058,2.506,2.5004,2.5,2.4996,2.4929,0,0,2.4983,2.4981,0,0,0,0,0,0,0,0,2.5146,2.5139,2.5084,2.5084,2.5084,2.505,2.5048,2.4994,2.5053,2.5065,2.5059,2.5061,2.5016,2.5011,2.4997,2.4926,2.4924,2.4983,2.498,2.4978,2.4977,0,0,0,0,0,0,0,2.5149,2.5141,2.5058,2.5084,2.5083,2.5089,2.5084,2.5038,2.5029,2.5065,2.5067,2.5061,2.5016,2.5001,2.4996,2.4923,2.4983,2.4979,2.4976,2.4975,2.4797,2.4795,0,0,0,0,0,0,2.5153,2.5144,2.506,2.5057,2.5121,2.5085,2.508,2.5059,2.503,2.5028,2.5059,2.5062,2.5007,2.5001,2.4994,2.4915,2.4978,2.4974,2.4972,2.4799,2.4796,2.4794,0,0,0,0,0,0,2.5155,2.5145,2.5062,2.5101,2.5091,2.5081,2.5057,2.5057,2.5041,2.5026,2.5024,2.5045,2.5008,2.5,2.4946,2.4913,2.4973,2.4969,2.4802,2.4798,2.4795,2.4755,0,0,0,0,0,0,2.5159,2.5146,2.5121,2.51,2.5089,2.5015,2.5055,2.5054,2.5035,2.5039,2.5012,2.501,2.5009,2.4952,2.4942,2.4908,2.4965,2.4805,2.48,2.4796,2.4759,2.4751,2.4744,0,0,0,0,0,2.5163,2.511,2.5119,2.5109,2.5057,2.5014,2.5007,2.5009,2.5032,2.5007,2.4997,2.5011,2.4919,2.4946,2.4935,2.49,2.4807,2.4801,2.4797,2.4763,2.4753,2.4744,0,0,0,0,0,0,2.5124,2.5107,2.5118,2.5057,2.5037,2.5018,2.4986,2.4997,2.4969,2.4973,2.4975,2.4969,2.4913,2.4901,2.4932,2.4835,2.4866,2.4859,2.4844,2.4835,2.4827,2.483,2.4962,0,0,0,0,0,2.5109,2.5076,2.5063,2.501,2.5,2.4995,2.4976,2.498,2.4958,2.4949,2.4935,2.4912,2.4879,2.4856,2.4824,2.4758,2.4753,2.4729,2.4721,2.4715,2.4708,2.4674,2.4663,2.4778,2.4778,2.4778,0,0,2.5076,2.5063,2.5042,2.5002,2.4987,2.4953,2.4987,2.4948,2.4922,2.4942,2.4891,2.4881,2.4855,2.4796,2.4769,2.4784,2.4676,2.4709,2.4704,2.47,2.4668,2.4657,2.4648,2.4774,2.4775,2.4775,0,0,2.5,2.4986,2.4942,2.4927,2.4905,2.4903,2.4892,2.4873,2.4867,2.4817,2.4832,2.48,2.4742,2.4724,2.4707,2.4627,2.4639,2.4617,2.4575,2.4542,2.4533,2.4525,2.4497,2.4487,2.461,2.461,2.461,0,2.4961,2.4911,2.4917,2.4879,2.4861,2.4881,2.4836,2.4821,2.4788,2.4775,2.4794,2.4723,2.4707,2.4644,2.4625,2.4611,2.4599,2.4619,2.4534,2.4526,2.4519,2.4492,2.4482,2.4607,2.4608,2.4608,2.4608,0,2.4866,2.4831,2.4798,2.4769,2.4748,2.4706,2.4706,2.4683,2.469,2.4685,2.4634,2.4617,2.4582,2.4568,2.4572,2.4507,2.4517,2.4535,2.4566,2.4505,2.4481,2.447,2.4604,2.4605,2.4605,2.4606,0,0,2.476,2.4739,2.4727,2.4715,2.4693,2.4666,2.4625,2.4595,2.4576,2.4553,2.4519,2.4471,2.4488,2.4469,2.4472,2.4443,2.4383,2.4465,2.4464,2.445,2.431,2.4297,2.4285,2.4391,2.4389,2.4388,2.4312,0,2.4683,2.4614,2.462,2.4555,2.4523,2.4543,2.4508,2.4491,2.4486,2.4458,2.4452,2.4418,2.4443,2.4432,2.4404,2.4396,2.4354,2.4402,2.4359,2.4357,2.4364,2.4272,2.4257,2.4187,2.4303,2.4301,2.43,0,2.4582,2.456,2.4492,2.4478,2.4465,2.4433,2.4407,2.438,2.4361,2.4359,2.434,2.4349,2.4308,2.4342,2.4285,2.4317,2.43,2.4294,2.4291,2.4287,2.4324,2.4265,2.4164,2.4153,2.4284,2.4285,2.4287,0,2.4514,2.4466,2.442,2.4409,2.4391,2.4369,2.436,2.4343,2.4325,2.4301,2.429,2.4261,2.4244,2.4222,2.4222,2.4247,2.4165,2.4199,2.4163,2.4163,2.4144,2.4145,2.4039,2.4133,2.4133,2.4134,2.4134,0,2.4426,2.4384,2.4389,2.436,2.4314,2.4322,2.4275,2.4269,2.4255,2.4225,2.4239,2.4211,2.4214,2.4185,2.4185,2.4139,2.4131,2.4129,2.4129,2.4127,2.4128,2.4115,2.412,2.4131,2.4131,2.4132,2.4132,0,2.434,2.4342,2.4294,2.4282,2.4278,2.4245,2.4234,2.4207,2.4205,2.4167,2.4159,2.4155,2.4122,2.4121,2.4082,2.4082,2.4026,2.4032,2.4033,2.4034,2.3998,2.4002,2.3881,2.3865,2.397,2.3969,2.3968,0,2.4284,2.4253,2.4239,2.4221,2.4212,2.4183,2.4165,2.4172,2.4153,2.4131,2.4106,2.4076,2.4051,2.3998,2.399,2.3961,2.3967,2.3926,2.3962,2.3962,2.3966,2.3968,2.3965,2.3919,2.3918,2.3917,2.3916,0,2.4185,2.4188,2.4163,2.4139,2.4119,2.41,2.4082,2.4066,2.4071,2.4049,2.4017,2.3998,2.3961,2.393,2.3903,2.3892,2.3905,2.3905,2.3895,2.3893,2.3895,2.3894,2.4014,2.3907,2.3908,2.3909,2.3909,2.391,2.4112,2.4086,2.4073,2.4046,2.4034,2.4018,2.3993,2.3989,2.3963,2.3934,2.394,2.3904,2.3888,2.3853,2.384,2.3812,2.3826,2.3811,2.3808,2.3804,2.38,2.39,2.3807,2.3807,2.3807,2.3808,2.3808,0,2.4014,2.4008,2.3982,2.3959,2.3937,2.3954,2.3936,2.3916,2.3886,2.387,2.3847,2.3811,2.3782,2.3774,2.3746,2.3725,2.373,2.3717,2.3718,2.3716,2.3789,2.3801,2.3713,2.3714,2.3714,2.3714,2.3714,2.3714,2.396,2.3918,2.392,2.3872,2.3865,2.3832,2.382,2.3806,2.3794,2.3754,2.3731,2.3727,2.3714,2.3686,2.366,2.3658,2.3647,2.3632,2.3633,2.3701,2.371,2.3719,2.373,2.363,2.3629,2.3562,2.3561,2.3561]}]]